Location: Valencia
(39.4670°N, 0.3670°W)
Time: 08:49:25
(UTC+02:00)

ISS - Pass Details

Date: 11 July 2017
Orbit: 400 x 408 km, 51.6° (Epoch: 21 July)

Event Time Altitude Azimuth Distance (km) Brightness Sun altitude
Exits shadow 05:49:45 - 284° (WNW) 2,061 -0.6 -9.5°
Reaches altitude 10° 05:51:47 10° 305° (NW) 1,454 -1.2 -9.2°
Maximum altitude 05:53:44 15° 342° (NNW) 1,200 -1.2 -8.9°
Drops below altitude 10° 05:55:42 10° 19° (NNE) 1,460 0.0 -8.6°
Sets 05:58:28 0° 45° (NE) 2,323 2.3 -8.1°
